Lethbridge, Alberta

12:13 AM MST on December 08, 2016 (GMT -0700)
Lethbridge Airport

Weather History for CYQL - November, 2013

Change the Weather History Date:

Thursday, November 28, 2013

  Actual Average Record
Temperature  
Mean Temperature 34 °F -  
Max Temperature 55 °F 31 °F 57 °F (2002)
Min Temperature 14 °F 11 °F -23 °F (2006)
Degree Days  
Heating Degree Days 30    
Moisture  
Dew Point 21 °F    
Average Humidity 62    
Maximum Humidity 93    
Minimum Humidity 20    
Precipitation  
Precipitation 0.00 in 0.03 in - ()
Sea Level Pressure  
Sea Level Pressure 30.03 in    
Wind  
Wind Speed 14 mph ()    
Max Wind Speed 38 mph    
Max Gust Speed 48 mph    
Visibility 10.5 miles    
Events      
Averages and records for this station are not official NWS values.
T = Trace of Precipitation, MM = Missing Value Source: Averaged Metar Reports

Daily Weather History Graph

Daily Weather History Graph

Search for Another Location

Airport or City:

Trip Planner

Search our weather history database for the weather conditions in past years. The results will help you decide how hot, cold, wet, or windy it might be!

Date:

Astronomy

Nov. 28, 2013 Rise Set
Actual Time 8:02 AM MST 4:35 PM MST
Civil Twilight 7:26 AM MST 5:12 PM MST
Nautical Twilight 6:45 AM MST 5:52 PM MST
Astronomical Twilight 6:07 AM MST 6:30 PM MST
Moon 2:44 AM MST (11/28) 2:08 PM MST (11/28)
Length of Visible Light 9h 46m
Length of Day
8h 32m
Waning Crescent, 22% of the Moon is Illuminated
Nov 28
Waning Crescent
Dec 2
New
Dec 9
First Quarter
Dec 17
Full
Dec 25
Last Quarter

Hourly Weather History & Observations

Time (MST) Temp. Windchill Dew Point Humidity Pressure Visibility Wind Dir Wind Speed Gust Speed Precip Events Conditions
12:00 AM 17.6 °F 5.7 °F 15.8 °F 93% 30.19 in 7.0 mi SW 10.4 mph - N/A   Clear
1:00 AM 17.6 °F 5.0 °F 15.8 °F 93% 30.17 in 9.0 mi WSW 11.5 mph - N/A   Clear
2:00 AM 15.8 °F 3.4 °F 14.0 °F 93% 30.16 in 9.0 mi WSW 10.4 mph - N/A   Clear
3:00 AM 17.6 °F 7.3 °F 15.8 °F 93% 30.15 in 9.0 mi SSW 8.1 mph - N/A   Clear
4:00 AM 15.8 °F 8.6 °F 14.0 °F 93% 30.15 in 9.0 mi Variable 4.6 mph - N/A   Clear
5:00 AM 15 °F - 13 °F 86% 30.14 in 10 mi South 8.1 mph - -  
5:00 AM 14.0 °F 2.0 °F 12.2 °F 93% 30.14 in 9.0 mi South 9.2 mph - N/A   Clear
6:00 AM 14.0 °F 3.9 °F 12.2 °F 93% 30.13 in 15.0 mi South 6.9 mph - N/A   Partly Cloudy
7:00 AM 17.6 °F 9.3 °F 15.8 °F 93% 30.12 in 3.0 mi SSE 5.8 mph - N/A   Clear
8:00 AM 17.6 °F 5.7 °F 15.8 °F 93% 30.11 in 10.0 mi South 10.4 mph - N/A   Mostly Cloudy
9:00 AM 24.8 °F 12.9 °F 23.0 °F 93% 30.07 in 40.0 mi SW 13.8 mph - N/A   Mostly Cloudy
10:00 AM 33.8 °F 26.4 °F 26.6 °F 75% 30.05 in 40.0 mi SSW 9.2 mph - N/A   Mostly Cloudy
11:00 AM 40 °F - 30 °F 56% 30.01 in 10 mi SW 10.4 mph - -  
11:00 AM 41.0 °F 34.3 °F 30.2 °F 65% 30.01 in 40.0 mi SW 11.5 mph - N/A   Mostly Cloudy
12:00 PM 50.0 °F - 32.0 °F 50% 29.96 in 40.0 mi WSW 19.6 mph 28.8 mph N/A   Scattered Clouds
1:00 PM 53.6 °F - 28.4 °F 38% 29.94 in 40.0 mi WSW 18.4 mph 25.3 mph N/A   Partly Cloudy
2:00 PM 55.4 °F - 24.8 °F 31% 29.91 in 40.0 mi WSW 24.2 mph 35.7 mph N/A   Mostly Cloudy
3:00 PM 51.8 °F - 21.2 °F 30% 29.90 in 40.0 mi West 38.0 mph 48.3 mph N/A   Mostly Cloudy
4:00 PM 50.0 °F - 19.4 °F 30% 29.91 in 40.0 mi WSW 36.8 mph 46.0 mph N/A   Mostly Cloudy
5:00 PM 49 °F - 20 °F 20% 29.94 in 10 mi West 34.5 mph - -  
5:00 PM 50.0 °F - 21.2 °F 32% 29.93 in 40.0 mi West 34.5 mph 42.6 mph N/A   Mostly Cloudy
6:00 PM 48.2 °F - 21.2 °F 34% 29.94 in 40.0 mi West 33.4 mph 42.6 mph N/A   Mostly Cloudy
7:00 PM 44.6 °F 35.1 °F 23.0 °F 43% 29.96 in 15.0 mi West 27.6 mph 35.7 mph N/A   Scattered Clouds
8:00 PM 44.6 °F 34.4 °F 23.0 °F 43% 29.97 in 15.0 mi West 32.2 mph 38.0 mph N/A   Partly Cloudy
9:00 PM 42.8 °F 32.7 °F 23.0 °F 46% 29.97 in 15.0 mi West 27.6 mph 36.8 mph N/A   Clear
10:00 PM 44.6 °F 36.6 °F 24.8 °F 46% 29.96 in 15.0 mi West 19.6 mph 29.9 mph N/A   Mostly Cloudy
11:00 PM 44 °F - 24 °F 32% 29.96 in 10 mi West 27.6 mph - -  
11:00 PM 44.6 °F 34.9 °F 23.0 °F 43% 29.96 in 9.0 mi West 28.8 mph 34.5 mph N/A   Clear